Temperature
9 8 8 8 8 8 8 8 8 8 8 8 8 8 8 8 8 8 8 8 7 7 7 7 7 7 7 7 6 6 6 6 6 6 6 6 6 6 6 6 7 7 7
8 8 8 8 8 8 8 8 8 8 8 8 8 7 7 7 7 7 7 7 7 7 7 7 7 6 6 6 6 6 6 5 5 5 6 6 6 6 6 6 6 6 6
7 8 8 8 8 8 7 7 7 7 7 7 7 7 7 7 7 7 7 7 7 7 7 6 6 6 6 6 6 6 5 5 5 5 5 5 5 5 5 5 5 5 5
7 7 7 7 7 7 7 7 7 7 7 7 7 6 6 6 6 6 6 6 6 6 6 6 6 6 6 5 5 5 5 5 4 4 4 5 5 5 5 5 5 5 5
6 6 6 6 6 6 6 6 6 6 6 6 6 6 6 6 6 6 6 6 6 6 6 6 5 5 5 5 5 4 4 4 4 4 4 4 4 4 4 4 4 4 4
6 6 6 6 6 6 6 6 6 6 6 6 6 5 5 5 5 5 5 5 5 5 5 5 5 5 4 4 4 4 4 4 4 3 3 3 4 4 3 3 3 3 3
5 5 5 5 5 5 5 5 5 5 5 5 5 5 5 5 5 5 5 5 4 4 4 4 4 4 4 4 4 4 3 3 3 3 3 3 3 3 3 3 3 3 3
4 5 5 5 4 4 4 4 4 4 4 4 4 4 4 4 4 4 4 4 4 4 4 4 4 4 4 3 3 3 3 3 3 2 3 3 3 3 2 2 2 2 2
4 4 4 4 4 4 4 4 4 4 4 4 4 4 4 4 4 4 3 3 4 4 3 3 3 3 3 2 2 2 2 2 2 2 2 2 2 2 2 2 2 2 2
3 3 3 3 3 3 3 3 3 3 3 3 3 3 3 3 3 3 3 3 3 3 3 3 2 2 2 2 2 2 2 2 2 2 2 2 2 2 2 2 1 1 1
2 2 2 2 2 2 2 2 2 2 2 2 2 2 2 2 3 2 2 2 2 2 2 2 2 2 1 1 1 1 1 1 1 1 1 1 1 1 1 1 1 1 0
2 2 2 2 2 2 2 2 2 2 2 2 2 2 2 2 2 2 2 2 1 1 1 1 1 1 1 1 0 0 0 0 0 0 0 0 1 1 1 1 0 0 0
1 1 1 1 1 1 1 1 1 1 1 1 1 1 1 1 1 1 1 1 1 1 0 0 0 0 0 0 -0 -0 -0 -0 -0 -0 -0 -0 -0 0 -0 -0 -0 -0 -0
1 1 1 1 1 1 1 1 1 1 1 0 0 0 1 1 1 1 1 0 0 0 -0 -0 -0 -0 -0 -0 -0 -1 -1 -1 -1 -1 -1 -1 -1 -1 -1 -1 -1 -1 -1
0 0 0 0 0 0 0 0 0 0 0 -0 -0 -0 -0 -0 0 0 -0 -0 -0 -0 -1 -1 -1 -1 -1 -1 -1 -1 -1 -1 -1 -1 -1 -1 -1 -1 -1 -1 -1 -1 -1
-0 -0 -0 -0 -0 -1 -1 -1 -1 -1 -1 -1 -1 -1 -1 -1 -1 -1 -1 -1 -1 -1 -1 -1 -1 -1 -1 -1 -1 -1 -1 -2 -2 -2 -2 -2 -2 -2 -2 -2 -2 -2 -2
-1 -1 -1 -1 -1 -1 -1 -1 -1 -1 -1 -1 -1 -1 -1 -1 -1 -1 -1 -1 -2 -2 -2 -2 -2 -2 -2 -2 -2 -2 -2 -2 -2 -2 -2 -2 -2 -2 -2 -2 -2 -2 -2
-2 -2 -2 -2 -2 -2 -2 -2 -2 -2 -2 -2 -2 -2 -2 -2 -2 -2 -2 -2 -2 -2 -2 -2 -2 -2 -2 -2 -2 -2 -2 -2 -2 -2 -2 -2 -2 -2 -2 -2 -2 -3 -3
-2 -2 -2 -2 -3 -3 -3 -3 -3 -3 -3 -3 -2 -2 -2 -2 -2 -2 -3 -3 -3 -3 -2 -2 -2 -2 -2 -2 -3 -3 -3 -3 -3 -3 -2 -2 -2 -3 -3 -3 -3 -3 -3
-3 -3 -3 -3 -3 -3 -3 -3 -3 -3 -3 -3 -3 -3 -3 -3 -3 -3 -3 -3 -3 -3 -3 -3 -3 -3 -3 -3 -3 -3 -3 -3 -3 -3 -3 -3 -3 -3 -3 -3 -3 -3 -3
-3 -3 -3 -3 -4 -4 -4 -4 -4 -4 -4 -4 -4 -4 -4 -4 -4 -3 -3 -3 -3 -3 -3 -3 -3 -3 -3 -3 -3 -3 -3 -3 -3 -3 -3 -3 -3 -3 -3 -3 -3 -4 -4
-4 -4 -4 -4 -4 -4 -4 -4 -4 -4 -4 -4 -4 -4 -4 -4 -4 -4 -4 -4 -4 -3 -3 -3 -3 -3 -3 -3 -3 -3 -3 -3 -3 -3 -3 -3 -3 -3 -4 -4 -4 -4 -4
-4 -4 -4 -4 -4 -5 -5 -5 -5 -5 -5 -4 -4 -4 -4 -4 -4 -4 -4 -4 -4 -4 -4 -4 -4 -3 -3 -4 -4 -4 -4 -3 -3 -3 -4 -4 -4 -4 -4 -4 -4 -4 -4
-4 -5 -5 -5 -5 -5 -5 -5 -5 -5 -5 -5 -5 -5 -5 -5 -5 -4 -4 -4 -4 -4 -4 -4 -4 -4 -4 -4 -4 -4 -4 -4 -4 -4 -4 -4 -4 -4 -4 -4 -4 -4 -4
-5 -5 -5 -5 -5 -5 -5 -5 -5 -5 -5 -5 -5 -5 -5 -5 -5 -5 -5 -4 -4 -4 -4 -4 -4 -4 -4 -4 -4 -4 -4 -4 -4 -4 -4 -4 -4 -4 -4 -4 -4 -4 -4
-5 -5 -5 -5 -6 -6 -6 -6 -6 -6 -6 -5 -5 -5 -5 -5 -5 -5 -5 -5 -5 -4 -4 -4 -4 -4 -4 -4 -4 -4 -4 -4 -4 -4 -4 -4 -4 -4 -4 -4 -4 -5 -5
Wind_Speed
1 2 2 1 2 2 2 2 2 2 2 2 2 2 2 2 2 3 3 3 3 3 3 3 3 3 2 2 2 2 2 3 6 5 3 2 2 3 3 5 6 6 6
1 1 1 2 2 2 2 2 2 2 2 2 2 2 2 2 3 3 4 4 4 4 3 3 4 3 3 3 3 3 3 3 4 7 4 3 3 3 3 3 4 5 5
1 1 0 1 1 1 1 2 2 2 2 2 2 3 3 3 3 3 4 4 4 4 4 4 4 3 4 3 3 3 3 3 3 5 6 3 3 2 3 4 3 3 5
2 2 1 1 1 2 1 1 1 1 2 2 2 2 2 2 2 2 3 3 3 3 3 4 4 4 4 4 4 4 4 4 4 4 5 4 3 3 2 3 4 3 4
1 1 1 1 1 1 1 1 1 2 2 2 2 2 2 2 2 2 2 3 3 3 3 3 4 4 5 5 4 4 4 4 4 4 5 4 4 3 3 3 4 4 4
1 1 1 1 1 1 1 1 2 2 2 2 2 3 2 2 4 5 4 3 3 4 4 4 4 4 5 7 7 7 6 5 5 5 5 6 6 5 3 3 3 3 3
1 1 1 1 1 2 2 2 2 2 2 3 3 3 3 4 5 6 6 4 4 4 4 4 4 4 5 4 6 7 7 10 10 7 7 8 6 5 4 4 4 4 5
2 2 2 2 2 2 2 2 3 3 3 3 3 3 4 4 6 6 7 5 4 5 4 4 4 5 5 4 4 4 5 6 7 7 7 7 6 4 4 5 5 4 4
3 3 3 2 2 2 3 3 3 3 3 4 4 4 4 5 6 7 7 3 4 5 5 5 5 5 8 7 5 5 6 6 7 9 9 9 9 8 5 3 3 2 4
3 3 3 3 3 3 4 4 3 3 4 4 5 5 5 5 7 8 7 3 4 5 4 5 8 8 8 8 6 6 7 6 5 5 6 7 6 6 6 5 5 4 3
3 3 3 3 4 4 4 3 4 4 4 5 5 5 5 6 8 9 8 5 5 5 5 4 5 9 10 10 9 7 9 7 5 5 5 4 4 3 3 3 3 4 4
3 3 4 4 4 4 4 4 4 4 5 5 5 6 5 5 7 8 9 9 7 6 6 5 5 9 10 11 9 9 11 8 4 4 4 4 4 4 4 4 4 4 5
3 4 4 5 5 5 5 5 5 5 5 5 5 5 5 4 5 9 10 11 11 7 6 8 9 10 10 8 10 11 9 5 5 5 6 6 4 4 3 3 3 3 3
4 5 5 5 5 5 5 5 5 5 5 5 5 5 5 5 4 4 5 6 8 7 6 8 10 11 9 9 8 7 6 6 6 6 5 4 3 3 3 3 3 2 2
5 5 5 5 5 5 5 5 6 6 7 7 6 6 6 7 7 8 6 5 5 6 5 4 4 5 5 5 5 5 5 5 6 5 5 5 4 4 4 3 3 3 3
5 5 4 4 4 4 5 6 8 9 10 12 12 10 9 11 12 13 12 12 11 10 7 5 6 6 7 7 6 6 6 6 6 6 6 5 5 5 5 4 4 4 4
5 5 4 4 4 5 5 5 6 7 9 11 13 13 13 14 14 14 14 13 13 12 8 7 7 8 8 7 7 7 7 6 6 6 6 6 5 5 5 5 5 4 5
6 6 6 5 5 5 5 6 6 6 7 6 8 12 13 14 14 14 13 11 9 9 7 8 8 8 7 7 7 7 6 6 5 6 6 6 6 5 5 5 5 5 5
6 5 5 5 5 5 6 6 6 7 7 7 6 7 11 12 13 13 11 8 8 8 8 8 8 8 7 7 7 7 7 7 6 6 6 6 6 6 6 6 6 7 6
6 8 7 6 5 6 6 6 6 7 7 7 8 7 6 6 6 7 7 7 8 8 8 8 8 8 7 7 7 7 7 6 7 6 6 6 6 6 7 7 6 6 6
5 6 8 7 6 6 7 7 7 7 8 8 8 9 11 7 7 8 7 7 8 8 8 7 7 7 7 7 6 7 7 7 7 7 6 6 6 6 6 6 6 6 5
5 6 5 6 6 6 7 7 7 8 8 9 8 9 13 8 7 7 7 7 7 7 7 7 7 6 6 6 6 6 7 7 7 7 7 7 6 6 6 6 5 5 5
5 6 6 6 6 10 10 7 7 8 8 8 8 7 7 7 7 8 8 7 7 7 6 6 6 6 6 6 6 7 7 8 7 7 7 7 6 6 6 6 7 6 6
6 7 7 7 7 7 8 8 8 8 8 8 8 8 8 8 8 8 8 7 7 6 6 6 6 8 8 7 6 7 8 8 8 8 8 8 7 6 6 6 6 6 6
6 7 7 7 8 8 8 8 8 8 8 8 8 8 7 7 8 8 7 7 7 7 7 7 6 7 8 9 8 8 9 10 10 8 8 7 7 7 7 6 6 6 5
6 7 8 7 7 7 8 8 8 8 8 8 7 7 7 7 7 8 7 6 6 6 7 6 7 8 8 8 9 10 11 11 11 11 8 7 7 7 7 6 7 6 6
Wind_Direction
136 153 157 172 173 173 179 193 192 193 191 192 201 210 211 219 216 210 217 222 227 236 234 224 232 230 230 233 234 238 249 247 264 280 279 290 290 290 298 291 289 287 286
131 134 165 174 175 178 183 198 200 206 202 196 204 219 229 231 228 221 224 227 228 230 230 228 237 235 231 232 231 235 243 245 255 276 286 284 277 276 285 291 290 284 282
136 129 166 193 180 197 208 212 208 209 209 204 205 218 223 229 237 236 229 230 231 231 228 228 235 230 238 237 237 241 246 254 252 266 279 275 272 273 289 291 284 284 287
154 156 180 213 212 212 216 221 216 213 217 214 212 220 222 222 232 241 238 239 243 245 238 233 233 230 236 239 243 243 245 254 258 263 272 274 269 266 261 278 288 282 282
167 173 198 210 234 220 207 235 238 228 229 222 216 223 223 220 222 228 244 245 243 251 254 247 240 237 237 242 245 241 241 250 257 262 267 273 269 268 259 256 275 285 277
188 226 230 218 226 238 243 252 259 251 239 228 222 224 230 236 245 249 249 244 243 242 250 254 250 246 249 254 254 252 245 245 251 255 260 262 265 258 249 249 260 277 281
215 245 251 242 241 243 248 253 257 258 253 243 232 228 230 236 250 256 259 251 245 244 244 248 262 255 252 247 256 260 263 259 251 247 254 260 263 256 252 254 247 247 255
238 245 250 246 254 257 255 252 259 259 252 252 248 239 238 241 249 257 264 253 245 244 242 242 248 253 250 249 249 254 254 258 256 251 248 255 258 256 242 244 244 250 260
243 246 249 242 245 253 257 253 252 254 254 251 248 242 240 246 249 254 260 245 245 249 246 242 242 246 253 256 250 251 259 262 262 256 255 257 257 257 246 243 240 250 267
246 248 245 241 242 244 245 249 251 249 249 249 249 242 236 240 249 253 253 236 245 253 252 244 245 252 259 258 248 245 255 260 260 270 266 267 263 259 247 224 221 228 246
249 250 247 242 243 246 249 248 246 248 250 251 254 250 241 240 248 252 249 237 236 246 252 251 248 255 262 264 262 252 255 258 247 247 255 258 260 255 246 232 220 217 223
250 253 253 250 249 251 249 252 247 244 244 249 254 258 252 244 243 251 250 248 248 246 253 254 254 259 263 264 264 262 264 265 250 243 248 251 252 251 247 236 227 225 224
256 255 255 253 249 244 242 246 249 246 244 247 247 255 258 250 246 250 251 251 251 250 252 253 259 263 263 263 261 262 262 254 240 239 243 245 242 240 238 239 229 226 235
253 257 253 250 253 249 245 241 240 242 243 247 247 251 256 257 248 242 245 252 253 254 256 260 263 262 258 255 259 257 247 240 239 240 241 241 235 233 234 226 224 219 244
255 258 260 253 253 255 253 246 245 243 239 241 245 244 249 257 255 253 255 251 244 245 256 258 257 257 250 247 246 246 241 240 241 237 235 236 238 238 237 221 217 217 230
259 258 256 255 255 255 260 269 257 254 258 254 252 251 256 259 266 265 265 264 263 260 262 254 251 249 248 248 249 247 239 236 233 230 230 229 232 235 235 226 219 219 229
257 260 260 258 256 257 257 261 275 276 265 262 261 261 260 262 266 267 266 266 262 256 254 250 249 248 246 244 243 242 242 236 228 226 228 228 226 230 230 228 222 222 229
257 259 259 257 255 255 255 256 259 269 280 276 268 267 267 267 266 266 266 267 260 249 244 246 248 246 245 244 243 242 241 234 228 230 231 227 222 226 229 226 221 221 226
261 260 256 254 252 251 251 253 258 263 268 273 277 275 270 270 268 263 261 253 251 250 246 246 246 245 244 244 243 240 238 234 229 227 228 226 223 223 229 228 223 221 223
261 261 260 261 258 258 255 254 257 260 263 265 267 268 269 266 262 259 249 245 249 252 249 248 246 242 239 239 237 237 236 232 226 226 227 226 222 221 226 225 220 219 224
259 260 260 262 257 256 257 256 257 259 263 265 266 267 267 264 261 259 254 249 249 250 250 248 247 242 238 236 233 232 231 232 228 225 225 223 220 222 225 223 220 217 218
259 260 257 256 259 259 261 257 257 259 261 264 269 270 271 266 261 262 259 256 254 253 250 247 247 244 237 232 228 229 232 233 229 223 223 220 218 218 217 217 215 213 211
258 259 260 260 260 265 268 261 258 259 261 262 264 264 264 260 260 261 261 259 257 256 252 246 246 247 241 232 226 225 230 230 224 216 217 219 216 215 213 213 211 210 212
259 259 261 263 262 259 261 262 260 259 260 261 262 262 260 259 260 262 262 261 258 256 251 246 244 244 241 237 234 229 229 226 219 212 210 213 213 211 208 207 209 210 210
262 264 263 263 263 263 264 264 263 261 261 261 262 263 262 260 260 262 262 258 256 256 254 248 247 245 241 235 233 230 229 226 222 213 205 207 207 206 204 204 206 205 204
266 267 267 266 264 264 265 267 266 263 264 264 261 260 260 260 261 262 261 256 254 254 254 250 246 244 241 236 233 230 229 228 224 216 206 203 205 205 202 205 199 197 195
Height
1471 1471 1472 1473 1474 1474 1475 1476 1476 1477 1478 1479 1479 1480 1480 1481 1482 1483 1483 1484 1485 1486 1486 1487 1487 1487 1487 1487 1487 1487 1487 1487 1485 1483 1484 1483 1482 1481 1480 1479 1478 1477 1476
1469 1470 1470 1471 1471 1472 1473 1474 1474 1475 1476 1476 1477 1477 1477 1478 1478 1479 1480 1481 1481 1482 1482 1483 1483 1483 1483 1483 1483 1482 1482 1482 1481 1479 1479 1479 1478 1477 1476 1475 1474 1473 1472
1467 1467 1468 1469 1469 1470 1470 1471 1472 1472 1473 1473 1473 1474 1474 1474 1475 1475 1476 1477 1477 1477 1478 1478 1479 1479 1478 1479 1478 1478 1478 1477 1477 1476 1474 1474 1473 1473 1471 1471 1470 1468 1467
1465 1465 1466 1466 1466 1467 1467 1468 1468 1469 1469 1470 1470 1470 1470 1470 1471 1472 1472 1472 1473 1473 1473 1474 1474 1474 1474 1474 1474 1473 1473 1472 1472 1471 1470 1469 1468 1468 1467 1466 1464 1464 1463
1462 1463 1463 1463 1464 1464 1464 1465 1465 1465 1465 1465 1465 1466 1466 1466 1467 1467 1468 1468 1468 1468 1468 1469 1469 1469 1469 1469 1469 1468 1468 1467 1467 1466 1465 1464 1463 1463 1462 1461 1460 1459 1457
1460 1460 1460 1460 1460 1460 1460 1460 1461 1461 1461 1461 1461 1461 1462 1462 1463 1463 1464 1464 1463 1463 1463 1463 1463 1464 1464 1464 1463 1463 1463 1462 1461 1461 1460 1459 1458 1458 1458 1457 1455 1454 1452
1456 1457 1457 1457 1457 1457 1457 1457 1457 1457 1457 1457 1457 1457 1458 1458 1459 1459 1460 1459 1459 1458 1458 1458 1458 1458 1458 1458 1458 1457 1457 1457 1457 1456 1455 1454 1454 1453 1453 1452 1451 1450 1448
1453 1453 1454 1454 1454 1453 1453 1453 1453 1453 1453 1453 1453 1453 1454 1454 1455 1455 1455 1455 1454 1454 1453 1453 1453 1453 1453 1452 1452 1451 1450 1450 1451 1450 1450 1449 1449 1448 1448 1447 1446 1445 1444
1449 1449 1450 1450 1450 1449 1449 1450 1450 1450 1449 1450 1449 1449 1449 1449 1450 1450 1450 1449 1449 1448 1448 1448 1448 1447 1447 1447 1446 1445 1444 1444 1444 1444 1444 1443 1443 1443 1442 1442 1440 1439 1437
1446 1446 1446 1446 1446 1445 1445 1445 1445 1445 1445 1445 1445 1445 1444 1444 1445 1445 1445 1444 1443 1442 1442 1442 1442 1441 1441 1440 1440 1439 1438 1438 1438 1437 1437 1437 1437 1437 1436 1436 1435 1434 1432
1442 1442 1442 1441 1441 1441 1441 1441 1441 1441 1440 1440 1440 1439 1439 1439 1439 1439 1439 1438 1437 1436 1436 1436 1436 1435 1435 1434 1434 1433 1432 1432 1432 1431 1431 1431 1431 1431 1430 1430 1429 1429 1428
1437 1437 1437 1437 1436 1436 1436 1436 1436 1435 1435 1434 1434 1433 1433 1433 1433 1433 1433 1432 1432 1431 1430 1430 1430 1429 1429 1428 1428 1427 1427 1427 1426 1425 1425 1425 1425 1424 1424 1424 1424 1423 1423
1433 1432 1432 1432 1431 1431 1431 1430 1430 1429 1429 1428 1428 1427 1427 1427 1427 1427 1426 1426 1425 1425 1424 1424 1423 1423 1422 1421 1421 1421 1420 1420 1420 1419 1419 1419 1419 1419 1419 1418 1418 1417 1417
1428 1427 1427 1427 1426 1425 1425 1424 1424 1423 1423 1422 1422 1421 1421 1421 1421 1421 1420 1420 1419 1419 1418 1417 1416 1416 1415 1414 1414 1414 1413 1413 1413 1413 1412 1413 1413 1413 1412 1412 1412 1411 1411
1423 1422 1422 1421 1421 1420 1419 1419 1418 1417 1417 1417 1416 1416 1415 1414 1414 1415 1414 1413 1413 1412 1411 1410 1409 1408 1407 1407 1407 1407 1406 1407 1406 1406 1406 1406 1406 1406 1406 1406 1406 1405 1405
1418 1417 1416 1416 1415 1414 1413 1412 1411 1412 1411 1410 1410 1409 1408 1409 1408 1408 1407 1407 1406 1406 1405 1403 1402 1401 1400 1400 1400 1400 1400 1400 1400 1400 1400 1400 1400 1400 1400 1400 1400 1400 1400
1413 1412 1411 1410 1409 1408 1407 1406 1405 1404 1404 1403 1403 1402 1402 1401 1401 1400 1400 1399 1399 1398 1397 1395 1394 1394 1394 1393 1393 1393 1393 1393 1393 1394 1394 1394 1394 1394 1394 1395 1395 1395 1395
1407 1406 1405 1404 1403 1402 1401 1400 1399 1398 1396 1395 1395 1395 1394 1394 1393 1392 1392 1392 1390 1390 1389 1388 1387 1387 1386 1386 1386 1386 1386 1386 1387 1387 1387 1388 1388 1388 1388 1389 1389 1389 1390
1401 1400 1399 1398 1397 1396 1395 1394 1393 1391 1390 1388 1387 1387 1387 1386 1385 1385 1384 1384 1382 1381 1381 1380 1380 1379 1379 1379 1379 1379 1379 1379 1380 1381 1381 1381 1382 1382 1383 1383 1384 1384 1385
1394 1393 1393 1391 1390 1389 1388 1387 1386 1385 1383 1381 1380 1379 1379 1379 1377 1377 1376 1376 1375 1374 1373 1373 1372 1372 1372 1372 1372 1372 1372 1372 1373 1374 1375 1375 1376 1376 1377 1378 1378 1379 1379
1388 1387 1386 1385 1384 1383 1382 1380 1379 1378 1376 1375 1373 1373 1373 1372 1370 1369 1368 1368 1367 1366 1366 1365 1365 1364 1364 1364 1365 1365 1365 1366 1366 1367 1368 1369 1370 1371 1371 1372 1373 1374 1374
1381 1380 1379 1378 1377 1376 1375 1373 1372 1371 1369 1368 1366 1365 1365 1364 1363 1362 1361 1360 1360 1359 1359 1358 1357 1357 1357 1357 1358 1358 1358 1359 1360 1361 1362 1363 1364 1365 1366 1367 1367 1368 1369
1375 1373 1372 1371 1370 1369 1367 1366 1365 1363 1362 1361 1359 1358 1358 1357 1356 1355 1354 1353 1353 1352 1351 1351 1350 1350 1350 1350 1351 1351 1352 1353 1354 1355 1356 1357 1358 1359 1360 1361 1362 1363 1364
1368 1367 1365 1364 1363 1361 1360 1359 1358 1356 1355 1354 1353 1352 1351 1350 1349 1348 1347 1346 1346 1345 1345 1344 1343 1343 1343 1344 1344 1345 1345 1347 1348 1349 1350 1351 1352 1353 1355 1356 1357 1358 1359
1362 1360 1359 1357 1356 1354 1353 1352 1350 1349 1348 1347 1346 1345 1344 1343 1342 1341 1340 1340 1339 1338 1338 1337 1337 1337 1337 1337 1338 1338 1339 1340 1342 1343 1344 1345 1346 1347 1349 1351 1352 1353 1355
1355 1354 1352 1351 1349 1348 1346 1345 1344 1342 1341 1340 1339 1338 1337 1336 1335 1334 1333 1333 1332 1331 1331 1331 1331 1331 1331 1331 1332 1333 1334 1334 1335 1337 1338 1339 1341 1342 1344 1346 1347 1349 1350